Regional Weather Roundup
Issued by NWS

Home | Current Version | Previous Version | Text Only | Print | Product List | Glossary Off
Versions: 1 2 3 4 5 6 7 8 9 10 11 12 13 14 15 16 17 18 19 20 21 22 23 24 25 26 27 28 29 30 31 32 33 34 35 36 37 38 39 40 41 42 43 44 45 46 47 48 49 50

000
ASUS43 KLOT 190506
RWRIL

ILLINOIS REGIONAL WEATHER ROUNDUP
NATIONAL WEATHER SERVICE CHICAGO/ROMEOVILLE IL
1200 AM CDT SAT APR 19 2014

NOTE: "FAIR" INDICATES FEW OR NO CLOUDS BELOW 12,000 FEET WITH NO
SIGNIFICANT WEATHER AND/OR OBSTRUCTIONS TO VISIBILITY.

* THESE STATIONS ARE NOT UNDER NWS QUALITY CONTROL. THEY ALSO MAY NOT
  REPORT WEATHER SUCH AS PRECIPITATION OR FOG.

ILZ001-002-007-009-015-016-024-190600-
NORTHWEST ILLINOIS

CITY           SKY/WX    TMP DP  RH WIND       PRES   REMARKS
MOLINE         PTCLDY    47  36  65 E14       30.29R
STERLING*      CLEAR     39  30  70 E15       30.33R WCI  31
SAVANNA*       CLEAR     42  32  69 E6        30.33R
$$

ILZ003-004-008-010-011-017-018-190600-
NORTH CENTRAL ILLINOIS

CITY           SKY/WX    TMP DP  RH WIND       PRES   REMARKS
ROCKFORD       CLEAR     38  27  64 E10G20    30.37S WCI  31
FREEPORT*      CLEAR     39  33  80 E9        30.36R WCI  32
ROCHELLE*      CLEAR     37  30  75 E12       30.34F WCI  29
DE KALB*       CLEAR     34  28  79 E12       30.36S WCI  25
PERU*          CLEAR     40  32  72 E8        30.33S
$$

ILZ005-006-012>014-019>023-190600-
NORTHEAST ILLINOIS

CITY           SKY/WX    TMP DP  RH WIND       PRES   REMARKS
CHICAGO-OHARE  CLEAR     38  25  59 VRB7      30.37S WCI  33
CHICAGO-MIDWAY CLEAR     39  27  62 NE8       30.37S WCI  33
AURORA         CLEAR     38  27  64 E15       30.35S WCI  29
LANSING*       CLEAR     38  26  61 NE12      30.36F WCI  31
WAUKEGAN       CLEAR     36  26  67 N7        30.37S WCI  30
DUPAGE AIRPORT CLEAR     37  27  67 NE9       30.36R WCI  30
KANKAKEE*      CLEAR     37  29  73 NE8       30.36R WCI  31
WHEELING       CLEAR     38  27  64 NE3       30.39S
MORRIS*        CLEAR     39  27  63 NE7       30.34S WCI  34
ROMEOVILLE*    CLEAR     38  27  63 NE15      30.34F WCI  30
NORTHERLY ISL    N/A     39  28  65 N14         N/A  WCI  31
$$

LMZ740>746-190600-
SOUTHERN LAKE MICHIGAN

STATION/POSITION SKY/WX   TEMP    WIND        PRES    VSBY  WAVE
                          AIR SEA DIR/SP/G                  HT/PER
                          (F)     (DEG/KT/KT) (MB)    (MI)  (FT/S)
WAUKEGAN HARBOR            38      20/ 13/ 17 1029.5F
HARRISON CRIB              39      20/ 13/ 16   N/A
BURNHAM HARBOR             39      20/ 12/ 13   N/A
CALUMET HARBOR             38     360/  5/  8 1029.0R
MICHIGAN CITY              38      20/ 11/ 13   N/A
$$

ILZ025>027-034>036-040-047-049-050-058-095>099-190600-
WEST-CENTRAL ILLINOIS

CITY           SKY/WX    TMP DP  RH WIND       PRES   REMARKS
QUINCY         CLEAR     53  28  38 E8        30.25R
GALESBURG*     PTCLDY    49  40  71 E13G20    30.28R
MACOMB*        CLEAR     46  33  60 E6        30.28R
JACKSONVILLE*  CLEAR     48  30  50 E6        30.27S
PITTSFIELD*    CLEAR     54  30  39 E5        30.26S
$$

ILZ028>032-037-038-041>044-048-051>054-059>061-190600-
CENTRAL ILLINOIS

CITY           SKY/WX    TMP DP  RH WIND       PRES   REMARKS
PONTIAC        CLEAR     39  34  81 E9        30.35S WCI  33
BLOOMINGTON    CLEAR     39  33  79 E15       30.34R WCI  30
DECATUR        CLEAR     46  38  73 NE8       30.30R
PEORIA         CLEAR     47  36  65 E16       30.30R
LACON*         CLEAR     40  33  76 E12       30.33S
LINCOLN*       CLEAR     48  37  65 E12G18    30.30R
SPRINGFIELD    CLEAR     52  38  58 E15       30.28R
TAYLORVILLE    CLEAR     52  37  58 E15       30.27S
$$

ILZ033-039-045-046-055>057-062-063-190600-
EAST-CENTRAL ILLINOIS

CITY           SKY/WX    TMP DP  RH WIND       PRES   REMARKS
CHAMPAIGN      CLEAR     46  34  62 NE15      30.31S
RANTOUL*       CLEAR     45  35  67 NE14      30.33S
MATTOON        CLEAR     49  37  63 NE9       30.28S
PARIS*         CLEAR     49  32  52 NE10      30.30S
$$

ILZ079-100>102-190600-
SOUTHWEST ILLINOIS

CITY           SKY/WX    TMP DP  RH WIND       PRES   REMARKS
ALTON          CLEAR     53  39  58 CALM      30.25F
BELLEVILLE     CLEAR     50  44  78 N2        30.24R
CAHOKIA*       CLEAR     50  45  83 CALM      30.24S
SPARTA*        CLEAR     54  43  66 NE6       30.25S
$$

ILZ064>066-069>071-074>076-080>082-084>086-088>090-092>094-190600-
SOUTH-CENTRAL ILLINOIS

CITY           SKY/WX    TMP DP  RH WIND       PRES   REMARKS
CARBONDALE     CLEAR     50  46  86 CALM      30.23S
CAIRO*         PTCLDY    56  45  65 N5        30.22S
MARION         CLEAR     52  45  76 CALM      30.24S
MT. VERNON     CLEAR     45  34  65 N3        30.25S
CENTRALIA*       N/A     49  44  81 CALM      30.25S
SALEM*         CLEAR     56  44  64 NE5       30.25S
METROPOLIS*    PTCLDY    54  42  64 CALM      30.21S
$$

ILZ067-068-072-073-078-083-087-091-190600-
SOUTHEAST ILLINOIS

CITY           SKY/WX    TMP DP  RH WIND       PRES   REMARKS
FAIRFIELD*     CLEAR     55  46  71 N6        30.24S
HARRISBURG*    PTCLDY    56  43  62 N5        30.24S
ROBINSON*      CLEAR     56  43  62 NE10      30.27R
CARMI*         PTCLDY    54  48  81 N3        30.23S
$$

ABBREVIATIONS USED IN REMARKS
   TC - TEMPERATURE IN CELSIUS
  WCI - WIND CHILL INDEX
   HX - HEAT INDEX
  VSB - VISIBILITY
$$




USA.gov is the U.S. government's official web portal to all federal, state and local government web resources and services.